#timestamp,LO_Frequency,Hit,StdDev 
1583409615.1,286047023.9,N
1583409616.0,286047023.9,N
1583409635.8,286047018.2,N
1583409655.6,286047016.7,N
1583409675.5,286047009.4,N
1583409695.3,286047009.6,N
1583409715.2,286047021.4,N
1583409735.9,286047031.7,Y
1583409755.7,286047013.4,P
1583409775.6,286047010.4,P
1583409795.4,286047004.7,N
1583409815.2,286047003.9,N
1583409835.1,286047002.8,N
1583409836.0,286047002.8,N
1583409855.8,286047004.7,N
1583409875.7,286047007.0,N
1583409895.5,286047004.2,N
1583409915.3,286047007.8,N
1583409935.2,286047005.0,N
1583409955.0,286047006.2,N
1583409955.9,286047006.2,N
1583409975.8,286047003.2,N
1583409995.6,286047010.6,N
1583410015.4,286047008.6,N
1583410035.3,286047003.4,N
1583410055.1,286047006.0,N
1583410075.8,286047002.2,N
1583410095.7,286046999.7,N
1583410115.5,286046999.3,N
1583410135.4,286046997.0,N
1583410155.2,286047002.0,N
1583410175.0,286047011.0,N
1583410175.9,286047011.0,N
1583410195.8,286047008.8,N
1583410215.6,286047007.0,N
1583410235.4,286047004.4,N
1583410255.3,286047002.7,N
1583410275.1,286047003.5,N
1583410295.9,286047006.5,N
1583410315.7,286047001.3,N
1583410335.5,286046998.8,N
1583410355.4,286046997.7,N
1583410375.2,286046999.7,N
1583410395.0,286047006.9,N
1583410396.0,286047006.9,N
1583410415.8,286047007.8,N
1583410435.6,286047010.5,N
1583410455.5,286047013.5,Y
1583410475.3,286047014.2,P
1583410495.1,286047014.4,P
1583410515.9,286047005.7,N
1583410535.7,286046999.8,N
1583410555.6,286046999.2,N
1583410575.4,286046999.3,N
1583410595.2,286046999.2,N
1583410615.1,286047009.6,N
1583410616.0,286047009.6,N
1583410635.8,286047014.7,N
1583410655.7,286047015.3,N
1583410675.5,286047013.1,N
1583410695.3,286047017.0,N
1583410715.2,286047019.8,Y
1583410735.0,286047005.9,P
1583410735.9,286047005.9,P
1583410755.8,286047002.0,N
1583410775.6,286047007.9,Y
1583410795.4,286047007.2,P
1583410815.3,286047008.8,P
1583410835.1,286047000.8,N
1583410855.9,286046992.5,N
1583410875.7,286046987.0,N
1583410895.6,286046985.4,N
1583410915.4,286046984.1,N
1583410935.2,286046991.5,N
1583410955.1,286046988.9,N
1583410956.0,286046988.9,N
1583410975.8,286046996.7,N
1583410995.7,286047005.4,N
1583411015.5,286047013.1,N
1583411035.3,286047002.9,N
1583411055.2,286046997.7,N
1583411075.0,286046994.0,N
1583411075.9,286046994.0,N
1583411095.7,286046994.1,N
1583411115.6,286046993.3,N
1583411135.4,286046997.7,N
1583411155.3,286046994.5,N
1583411175.1,286046989.0,N
1583411195.8,286046987.4,N
1583411215.7,286046988.8,N
1583411235.5,286046996.3,N
1583411255.3,286046996.6,N
1583411275.2,286047002.7,N
1583411295.0,286046995.2,N
1583411295.9,286046995.2,N
1583411315.8,286046990.2,N
1583411335.6,286046991.6,N
1583411355.4,286046991.6,N
1583411375.3,286046987.3,N
1583411395.1,286046987.0,N
1583411415.8,286046992.2,N
1583411435.7,286046997.7,N
1583411455.5,286046994.1,N
1583411475.4,286046992.8,N
1583411495.2,286046991.0,N
1583411515.0,286046987.3,N
1583411515.9,286046987.3,N
1583411535.8,286046987.5,N
1583411555.6,286046992.8,N
1583411575.5,286046988.2,N
1583411595.3,286046983.9,Y
1583411615.1,286046988.9,P
1583411635.9,286046994.1,P
1583411655.7,286046996.7,N
1583411675.5,286047001.4,N
1583411695.4,286047010.6,N
1583411715.2,286047016.7,N
1583411735.1,286047015.0,N
1583411736.0,286047015.0,N
1583411755.8,286047008.4,N
1583411775.6,286047000.3,N
1583411795.5,286046998.6,N
1583411845.3,286046994.5,E
1583411855.3,286047001.1,N
1583411875.1,286046999.5,P
1583411895.8,286047005.2,P
1583411915.7,286047004.1,N
1583411935.5,286047000.2,N
1583411955.4,286047000.5,N
1583411975.2,286047004.2,N
1583411995.0,286047009.0,Y
1583411995.9,286047009.0,P
1583412015.8,286047013.5,P
1583412035.6,286047012.4,N
1583412055.4,286047007.6,N
1583412075.3,286047005.5,N
1583412095.1,286047003.2,N
1583412115.9,286047003.3,N
1583412135.7,286047004.2,N
1583412155.5,286047001.6,N
1583412175.4,286047005.5,N
1583412195.2,286047001.9,N
1583412215.0,286046996.5,N
1583412216.0,286046996.5,N
1583412235.8,286046993.0,N
1583412255.6,286046989.7,N
1583412275.5,286046987.1,N
1583412295.3,286046989.7,N
1583412315.1,286046987.3,N
1583412335.9,286046991.3,N
1583412355.7,286046991.5,N
1583412375.6,286046990.5,N
1583412395.4,286046989.8,N
1583412415.2,286046985.3,N
1583412435.1,286046982.2,N
1583412436.0,286046982.2,N
1583412455.8,286046983.4,N
1583412475.7,286046982.5,N
1583412495.5,286046981.8,N
1583412515.3,286046979.3,N
1583412535.2,286046977.3,N
1583412555.9,286046977.9,N
1583412575.7,286046977.8,N
1583412595.6,286046978.6,N
1583412615.4,286046981.8,N
1583412635.3,286046979.4,N
1583412655.1,286046979.5,N
1583412656.0,286046979.5,N
1583412675.8,286046980.8,N
1583412695.7,286046983.7,N
1583412715.5,286046984.3,N
1583412735.3,286046982.0,N
1583412755.2,286046977.5,Y
1583412775.0,286046996.1,P
1583412775.9,286046996.1,N
1583412795.8,286046994.7,N
1583412815.6,286046994.0,N
1583412835.4,286046991.8,N
1583412855.3,286046994.0,N
1583412875.1,286046992.2,N
1583412895.9,286046990.5,N
1583412915.7,286046989.1,Y
1583412935.6,286046997.6,P
1583412955.4,286047000.8,N
1583412975.2,286047002.4,N
1583412995.1,286047002.4,N
1583412996.0,286047002.4,N
1583413015.8,286047000.1,N
1583413035.7,286047001.7,N
1583413055.5,286047003.0,N
1583413075.3,286047004.0,N
1583413095.2,286047002.6,N
1583413115.0,286046999.5,N
1583413115.9,286046999.5,N
1583413135.7,286046999.1,N
1583413155.6,286046999.4,N
1583413175.4,286046999.1,N
1583413195.3,286046997.2,N
